User: anonymous   Login
Location: Beccas
(43.4309°N, 0.1528°E)
Time: 01:57:59
(UTC+00:00)
Language:

Cosmos 1703 - Orbit

View from above orbital plane
View from above orbital plane
View from above satellite
View from above satellite

Ground track
Ground track

The orbit data is extracted from the following two-line orbital elements,

1 16262U 85108A   24109.59223292  .00012614  00000-0  53510-3 0  9990
2 16262  82.4693 307.3154 0007773 309.4905  50.5643 15.22965792 96127
Epoch (UTC): 18 April 2024 14:12:48
Eccentricity: 0.0007773
inclination: 82.4693°
perigee height: 491 km
apogee height: 502 km
right ascension of ascending node: 307.3154°
argument of perigee: 309.4905°
revolutions per day: 15.22965792
mean anomaly at epoch: 50.5643°
orbit number at epoch: 9612

The dashed part of the orbit path shows where the satellite is in the earth's shadow,  

DLR